Orbital Elements at Epoch 2459200.5 (2020-Dec-17.0) TDB
Reference: JPL 16 (heliocentric ecliptic J2000)
Element | Value | Uncertainty (1-sigma) | Units |
e | .1549538985284954 | 3.9887e-08 | |
a | 3.019489704989705 | 2.3604e-08 | au |
q | 2.551608003634894 | 1.2042e-07 | au |
i | 4.28108497268857 | 4.1126e-06 | deg |
node | 289.1043276324152 | 6.8987e-05 | deg |
peri | .5445522174653044 | 7.5003e-05 | deg |
M | 47.76352006591243 | 2.5589e-05 | deg |
tp | 2458946.231487858939 (2020-Apr-06.73148786) | 0.00013686 | TDB |
period | 1916.455576231893 5.25 | 2.2472e-05 6.152e-08 | d yr |
n | .1878467752995489 | 2.2027e-09 | deg/d |
Q | 3.487371406344517 | 2.7262e-08 | au |
|
| | Orbit Determination Parameters
Additional Information
|